Zurück zum Katalog

STARLINK-30992

AktivKommunikationVLEO
NORAD 58524·PAYLOAD·🇺🇸 United States

Gestartet Dec 7, 2023 von Cape Canaveral Space Force Station

Loading…

Nächste Überflüge (nächste 24 Stunden)

TLE

AktuellSource: CelesTrak SupGP

Epoche: Sep 14, 2026, 22:19 UTC

1 58524C 23191S   26257.93034722  .00015096  00000+0  54691-3 0  2577
2 58524  43.0017 114.4994 0001202 284.7585 146.9406 15.27562828    14

Verfolge STARLINK-30992 in Echtzeit mit AllMySat

Download on the App Store